STARLINK-32010, 60279

Orbit data source: Space-Track

STARLINK-32010, 60279 is a payload satellite owned by SpaceX/Seattle (US) in LEO that was launched on Sun, 28 Jul 2024 UTC via an FALCON 9 launch vehicle from the Air Force Eastern Test Range (AFETR). Payload-class satellites include a variety of spacecraft equipped with specific instruments for various scientific and technological missions. These include communications satellites like Starlink; space stations such as the ISS; scientific satellites like the Hubble; Earth observation satellites from companies like Planet Labs, Umbra, and HawkEye 360; GPS; miniature CubeSats for education and research; and military/defense satellites.

Loading next visibility...
Identifier
60279, 2024-132B
Orbit
LEO
Country
Flag of USUS
Related business
Manufacturer
SpaceX/Seattle
Mission
Operational Commercial Communications
Bus & Motor
STARLINK V2M, Unknown motor
Mass
730 kg wet, ~700 kg dry
Launch date (UTC)
2024-07-28 (2 years ago)
Launch vehicle
FALCON 9
Launch site
Air Force Eastern Test Range (AFETR)
Object type
Payload
Rocket body
Debris
Shape & HBR
Box + 2 Pan, 17.7 m
Radar Cross Section
33.884 m², Large (>1 m²)

Expand to show TLE details & history
Last TLE update: 10 hours ago

TLE from 10 hours ago
0 STARLINK-32010
1 60279U 24132B   26255.01969713  .00000493  00000-0  27641-4 0  9992
2 60279  53.1599 265.8694 0001196  83.9699 276.1439 15.31693405120102
Epoch: 2026-09-12T00:28Z
TLE epoch observation values (Epoch: 2026-09-12T00:28:21.832Z)
Latitude
0.00003°
Longitude
-92.25625°
Altitude
471.572 km
Speed
7.632 km/s
True Right ascension
17h 43m 28s
True Declination
0° 00' 00"
Sunlit
Object was in daylight at epoch
Visualization orbit readout
Latitude
Unknown
Longitude
Unknown
Altitude
Unknown
Speed
Unknown
Apparent Right ascension
Unknown
Apparent Declination
Unknown
Sunlit
N/A
Visualization observer readout
Local Sidereal Time
02:53:55
Azimuth
Unknown
Elevation
Unknown
Doppler factor
Unknown
Orbital elements
Apogee altitude
471.835 km
Perigee altitude
470.197 km
Semi-major axis
6,849.153 km
Eccentricity
0.00012
Inclination
53.1599°
RAAN
265.8694°
Arg. of periapsis
83.9699°
True anomaly
276.13027°
Mean anomaly
276.1439°
Eccentric anomaly
276.13709°
Mean motion
3.82902 °/min
Orbital period
94.02 mins
BSTAR
0.000027641
Loading maneuver chart data...
Computing Atmospheric mass density...
Loading historical data...
Loading historical data...
Loading historical data...
Loading historical data...
Loading historical data...
Loading historical data...
Loading historical data...

Documentation

Showing up to 5 results
|